Location: Boca do Mato
(22.9085°S, 43.2930°W)
Time: 22:34:04
(UTC+00:00)

ADEOS Rocket - Pass Details

Date: 14 July 2020
Orbit: 859 x 1306 km, 98.7° (Epoch: 10 August)

Event Time Altitude Azimuth Distance (km) Brightness Sun altitude
Rises 08:18:06 0° 165° (SSE) 3,458 5.9 -17.2°
Reaches altitude 10° 08:20:27 10° 163° (SSE) 2,525 5.2 -16.7°
Maximum altitude 08:26:00 73° 78° (ENE) 936 3.1 -15.5°
Drops below altitude 10° 08:31:51 10° 353° (N) 2,657 5.4 -14.2°
Sets 08:34:22 0° 351° (N) 3,652 6.1 -13.6°
